DLH111 EDDL-OMDB

Flight info

Callsign DLH111
Flight time N/A
Altitude 35000
Route DODEN1T DODEN Y853 BOMBI DCT DETEV DCT DINKU/N0481F330 M867 XERUM DCT BAVAX DCT RADIZ/N0473F350 DCT PINDO/N0471F370 DCT PAXIS Y707 OBRAN L321 REXUM M872 TULOK/N0470F390 M872 BDB Y214 RAPMA DCT KUVSO DCT KATIT DCT PEKEM M628 RIGIL G783 ELUDA/N0488F350 G783 ASPED Q308 KIPOK/N0489F340 Q568 IMPED
Aircraft A343/H-SDE2E3FGHIJ4J5M1RWXY/LB1D1

Departure

Time N/A
Airport Düsseldorf Airport (EDDL)

Arrival

Time 2026-04-20 18:59
Airport Dubai International Airport (OMDB)
Time Latitude Longitude Altitude Speed Heading
2026-04-20 17:52 23.33746 49.16905 36850 ft 555 kts 97°
2026-04-20 17:53 23.32541 49.25199 36852 ft 555 kts 97°
2026-04-20 17:53 23.31330 49.33475 36850 ft 554 kts 97°
2026-04-20 17:54 23.30126 49.41751 36850 ft 554 kts 97°
2026-04-20 17:54 23.28928 49.49988 36853 ft 554 kts 97°
2026-04-20 17:55 23.27713 49.58324 36850 ft 554 kts 97°
2026-04-20 17:55 23.26502 49.66590 36850 ft 554 kts 97°
2026-04-20 17:56 23.25296 49.74805 36851 ft 553 kts 97°
2026-04-20 17:56 23.24080 49.83069 36850 ft 553 kts 97°
2026-04-20 17:57 23.22859 49.91319 36850 ft 553 kts 97°
2026-04-20 17:57 23.21630 49.99581 36850 ft 553 kts 97°
2026-04-20 17:58 23.20401 50.07829 36850 ft 552 kts 97°
2026-04-20 17:58 23.19169 50.16059 36850 ft 551 kts 97°
2026-04-20 17:59 23.17933 50.24287 36850 ft 551 kts 97°
2026-04-20 17:59 23.16704 50.32448 36852 ft 550 kts 97°
2026-04-20 18:00 23.15462 50.40656 36849 ft 550 kts 97°
2026-04-20 18:00 23.14215 50.48861 36850 ft 550 kts 97°
2026-04-20 18:01 23.12964 50.57056 36850 ft 550 kts 97°
2026-04-20 18:01 23.11709 50.65274 36851 ft 553 kts 97°
2026-04-20 18:02 23.10444 50.73529 36851 ft 553 kts 97°
2026-04-20 18:02 23.09174 50.81769 36850 ft 553 kts 97°
2026-04-20 18:03 23.07902 50.89999 36853 ft 552 kts 97°
2026-04-20 18:03 23.06626 50.98231 36853 ft 552 kts 97°
2026-04-20 18:04 23.05346 51.06437 36850 ft 551 kts 97°
2026-04-20 18:04 23.04063 51.14637 36852 ft 551 kts 97°
2026-04-20 18:05 23.02137 51.26921 36850 ft 549 kts 97°
2026-04-20 18:05 23.00852 51.35084 36852 ft 548 kts 97°
2026-04-20 18:06 22.99562 51.43242 36839 ft 548 kts 97°
2026-04-20 18:06 22.98278 51.51342 36843 ft 548 kts 97°
2026-04-20 18:07 22.96978 51.59504 36844 ft 548 kts 97°
2026-04-20 18:07 22.95677 51.67651 36855 ft 548 kts 97°
2026-04-20 18:08 22.94375 51.75789 36859 ft 547 kts 97°
2026-04-20 18:08 22.93288 51.82549 36860 ft 547 kts 97°
2026-04-20 18:09 22.91974 51.90681 36860 ft 547 kts 97°
2026-04-20 18:09 22.90659 51.98807 36859 ft 547 kts 97°
2026-04-20 18:10 22.89345 52.06927 36856 ft 545 kts 97°
2026-04-20 18:10 22.88030 52.15010 36850 ft 544 kts 97°
2026-04-20 18:11 22.86705 52.23080 36853 ft 544 kts 97°
2026-04-20 18:11 22.85381 52.31155 36852 ft 543 kts 96°
2026-04-20 18:12 22.84062 52.39172 36851 ft 543 kts 97°
2026-04-20 18:12 22.82744 52.47284 36847 ft 541 kts 94°
2026-04-20 18:13 22.82267 52.55381 36850 ft 538 kts 88°
2026-04-20 18:13 22.82042 52.63429 36851 ft 537 kts 87°
2026-04-20 18:14 22.81852 52.71521 36843 ft 537 kts 86°
2026-04-20 18:14 22.81652 52.79606 36840 ft 536 kts 87°
2026-04-20 18:15 22.81436 52.87683 36838 ft 536 kts 87°
2026-04-20 18:15 22.81216 52.95757 36845 ft 535 kts 87°
2026-04-20 18:16 22.80994 53.03822 36839 ft 535 kts 87°
2026-04-20 18:16 22.80766 53.11879 36840 ft 535 kts 87°
2026-04-20 18:17 22.80529 53.19874 36839 ft 534 kts 87°
2026-04-20 18:17 22.80291 53.27919 36840 ft 534 kts 87°
2026-04-20 18:18 22.80054 53.35966 36839 ft 534 kts 87°
2026-04-20 18:18 22.79808 53.44007 36841 ft 533 kts 87°
2026-04-20 18:19 22.79558 53.52047 36839 ft 534 kts 87°
2026-04-20 18:19 22.79304 53.60086 36839 ft 532 kts 87°
2026-04-20 18:20 22.79049 53.68041 36837 ft 532 kts 87°
2026-04-20 18:20 22.78790 53.76062 36841 ft 533 kts 87°
2026-04-20 18:21 22.78522 53.84088 36841 ft 532 kts 87°
2026-04-20 18:21 22.78250 53.92096 36838 ft 532 kts 87°
2026-04-20 18:22 22.78310 54.00055 36844 ft 522 kts 75°
2026-04-20 18:22 22.79633 54.07733 36844 ft 516 kts 71°
2026-04-20 18:23 22.81176 54.15309 36843 ft 514 kts 71°
2026-04-20 18:23 22.82743 54.22862 36842 ft 513 kts 71°
2026-04-20 18:24 22.84293 54.30420 36841 ft 513 kts 71°
2026-04-20 18:24 22.85821 54.37981 36837 ft 512 kts 71°
2026-04-20 18:25 22.87333 54.45482 36837 ft 513 kts 71°
2026-04-20 18:25 22.88846 54.53040 36839 ft 512 kts 71°
2026-04-20 18:26 22.90359 54.60582 36845 ft 512 kts 71°
2026-04-20 18:26 22.91864 54.68115 36840 ft 511 kts 72°
2026-04-20 18:27 22.93363 54.75654 36841 ft 511 kts 72°
2026-04-20 18:27 22.94860 54.83185 36844 ft 510 kts 72°
2026-04-20 18:28 22.96354 54.90692 36840 ft 509 kts 72°
2026-04-20 18:28 22.97841 54.98197 36691 ft 508 kts 72°
2026-04-20 18:29 22.98580 55.01945 36444 ft 507 kts 72°
2026-04-20 18:29 22.99316 55.05681 36071 ft 507 kts 72°
2026-04-20 18:29 23.00046 55.09381 35580 ft 507 kts 73°
2026-04-20 18:29 23.00871 55.13091 35150 ft 503 kts 68°
2026-04-20 18:30 23.02134 55.16598 34846 ft 498 kts 59°
2026-04-20 18:30 23.03888 55.19801 34443 ft 490 kts 49°
2026-04-20 18:30 23.06109 55.22573 34053 ft 483 kts 39°
2026-04-20 18:30 23.08711 55.24828 33648 ft 477 kts 29°
2026-04-20 18:31 23.11620 55.26523 33248 ft 473 kts 19°
2026-04-20 18:31 23.14718 55.27692 32861 ft 473 kts 14°
2026-04-20 18:31 23.17893 55.28690 32455 ft 476 kts 13°
2026-04-20 18:31 23.21100 55.29623 32058 ft 479 kts 12°
2026-04-20 18:32 23.24340 55.30540 31652 ft 483 kts 12°
2026-04-20 18:32 23.27599 55.31464 31261 ft 486 kts 13°
2026-04-20 18:32 23.30876 55.32404 30858 ft 489 kts 13°
2026-04-20 18:32 23.34181 55.33363 30459 ft 493 kts 13°
2026-04-20 18:33 23.37501 55.34336 30060 ft 496 kts 13°
2026-04-20 18:33 23.40844 55.35321 29659 ft 499 kts 14°
2026-04-20 18:33 23.44206 55.36314 29259 ft 501 kts 14°
2026-04-20 18:33 23.47573 55.37312 28857 ft 500 kts 14°
2026-04-20 18:34 23.50923 55.38307 28456 ft 498 kts 14°
2026-04-20 18:34 23.54260 55.39301 28054 ft 495 kts 14°
2026-04-20 18:34 23.57571 55.40285 27656 ft 491 kts 13°
2026-04-20 18:34 23.60859 55.41259 27257 ft 488 kts 13°
2026-04-20 18:35 23.64083 55.42213 26868 ft 485 kts 13°
2026-04-20 18:35 23.67327 55.43173 26458 ft 482 kts 13°
2026-04-20 18:35 23.70558 55.44129 26049 ft 479 kts 13°
2026-04-20 18:35 23.73769 55.45080 25656 ft 476 kts 13°
2026-04-20 18:36 23.76949 55.46025 25255 ft 473 kts 13°
2026-04-20 18:36 23.80116 55.46964 24926 ft 469 kts 13°
2026-04-20 18:36 23.83261 55.47895 24839 ft 468 kts 13°
2026-04-20 18:36 23.86396 55.48825 24840 ft 467 kts 13°
2026-04-20 18:37 23.89535 55.49761 24842 ft 466 kts 13°
2026-04-20 18:37 23.92666 55.50691 24684 ft 466 kts 13°
2026-04-20 18:37 23.95787 55.51616 24436 ft 464 kts 13°
2026-04-20 18:37 23.98873 55.52667 24184 ft 465 kts 20°
2026-04-20 18:38 24.01744 55.54286 23926 ft 466 kts 32°
2026-04-20 18:38 24.04291 55.56399 23688 ft 466 kts 38°
2026-04-20 18:38 24.06756 55.58698 23433 ft 465 kts 39°
2026-04-20 18:38 24.09162 55.61067 23191 ft 464 kts 40°
2026-04-20 18:39 24.11536 55.63458 22934 ft 462 kts 41°
2026-04-20 18:39 24.13889 55.65841 22693 ft 460 kts 41°
2026-04-20 18:39 24.16239 55.68212 22434 ft 458 kts 41°
2026-04-20 18:39 24.18580 55.70559 22178 ft 456 kts 40°
2026-04-20 18:40 24.20922 55.72897 21932 ft 454 kts 40°
2026-04-20 18:40 24.23254 55.75218 21677 ft 452 kts 40°
2026-04-20 18:40 24.25581 55.77530 21418 ft 450 kts 40°
2026-04-20 18:40 24.27896 55.79831 21168 ft 448 kts 40°
2026-04-20 18:41 24.30208 55.82129 20941 ft 447 kts 40°
2026-04-20 18:41 24.32506 55.84414 20683 ft 445 kts 40°
2026-04-20 18:41 24.34794 55.86692 20421 ft 443 kts 40°
2026-04-20 18:41 24.37074 55.88963 20177 ft 441 kts 40°
2026-04-20 18:42 24.39338 55.91223 19925 ft 439 kts 40°
2026-04-20 18:42 24.41590 55.93469 19676 ft 437 kts 40°
2026-04-20 18:42 24.43837 55.95710 19426 ft 435 kts 40°
2026-04-20 18:42 24.46071 55.97937 19177 ft 433 kts 40°
2026-04-20 18:43 24.48306 56.00166 18644 ft 433 kts 40°
2026-04-20 18:43 24.50494 56.02352 18148 ft 429 kts 40°
2026-04-20 18:43 24.52690 56.04548 17646 ft 424 kts 40°
2026-04-20 18:43 24.54853 56.06712 17179 ft 419 kts 40°
2026-04-20 18:44 24.57003 56.08868 16684 ft 415 kts 40°
2026-04-20 18:44 24.59236 56.10836 16169 ft 409 kts 31°
2026-04-20 18:44 24.61774 56.12183 15698 ft 401 kts 16°
2026-04-20 18:44 24.64438 56.13003 15202 ft 395 kts 11°
2026-04-20 18:45 24.67122 56.13609 14693 ft 391 kts
2026-04-20 18:45 24.69793 56.14099 14197 ft 387 kts
2026-04-20 18:45 24.72430 56.14540 13904 ft 378 kts
2026-04-20 18:45 24.74987 56.14964 13697 ft 367 kts
2026-04-20 18:46 24.77479 56.15314 13469 ft 356 kts
2026-04-20 18:46 24.79907 56.15079 13264 ft 345 kts 345°
2026-04-20 18:46 24.82140 56.14234 13089 ft 335 kts 338°
2026-04-20 18:46 24.84258 56.13248 12918 ft 326 kts 336°
2026-04-20 18:47 24.86316 56.12256 12753 ft 318 kts 336°
2026-04-20 18:47 24.88313 56.11283 12608 ft 311 kts 336°
2026-04-20 18:47 24.90261 56.10329 12464 ft 303 kts 336°
2026-04-20 18:47 24.92165 56.09394 12326 ft 295 kts 336°
2026-04-20 18:48 24.94017 56.08483 12195 ft 288 kts 336°
2026-04-20 18:48 24.95815 56.07583 12034 ft 280 kts 334°
2026-04-20 18:48 24.97463 56.06416 11609 ft 285 kts 320°
2026-04-20 18:48 24.98732 56.04751 11005 ft 286 kts 300°
2026-04-20 18:49 24.99496 56.02712 10253 ft 289 kts 289°
2026-04-20 18:49 25.00099 56.00590 9511 ft 290 kts 287°
2026-04-20 18:49 25.00675 55.98488 8810 ft 290 kts 287°
2026-04-20 18:49 25.01262 55.96336 8099 ft 289 kts 287°
2026-04-20 18:50 25.01840 55.94218 7440 ft 287 kts 287°
2026-04-20 18:50 25.02409 55.92144 6950 ft 287 kts 287°
2026-04-20 18:50 25.02983 55.90054 6636 ft 284 kts 287°
2026-04-20 18:50 25.03554 55.87980 6327 ft 281 kts 287°
2026-04-20 18:51 25.04117 55.85922 5984 ft 280 kts 287°
2026-04-20 18:51 25.04682 55.83869 5663 ft 278 kts 287°
2026-04-20 18:51 25.05239 55.81828 5338 ft 278 kts 287°
2026-04-20 18:51 25.05791 55.79788 5000 ft 276 kts 286°
2026-04-20 18:52 25.06340 55.77764 4651 ft 275 kts 287°
2026-04-20 18:52 25.06891 55.75750 4292 ft 274 kts 286°
2026-04-20 18:52 25.07440 55.73742 4041 ft 272 kts 286°
2026-04-20 18:52 25.07986 55.71744 4000 ft 273 kts 286°
2026-04-20 18:53 25.08528 55.69736 4005 ft 273 kts 286°
2026-04-20 18:53 25.09077 55.67724 4002 ft 274 kts 286°
2026-04-20 18:53 25.09617 55.65740 4002 ft 272 kts 286°
2026-04-20 18:53 25.10218 55.63731 4000 ft 273 kts 293°
2026-04-20 18:54 25.11099 55.61913 4006 ft 272 kts 300°
2026-04-20 18:54 25.12094 55.60131 3999 ft 272 kts 301°
2026-04-20 18:54 25.13095 55.58354 4017 ft 272 kts 301°
2026-04-20 18:54 25.14134 55.56637 3814 ft 267 kts 304°
2026-04-20 18:55 25.15114 55.54908 3321 ft 262 kts 299°
2026-04-20 18:55 25.15991 55.53236 2887 ft 240 kts 300°
2026-04-20 18:55 25.16817 55.51729 2554 ft 219 kts 301°
2026-04-20 18:55 25.17571 55.50370 2314 ft 197 kts 301°
2026-04-20 18:56 25.18258 55.49125 2041 ft 182 kts 300°
2026-04-20 18:56 25.18893 55.47977 1802 ft 167 kts 301°
2026-04-20 18:56 25.19474 55.46924 1578 ft 155 kts 301°
2026-04-20 18:56 25.20015 55.45946 1379 ft 146 kts 301°
2026-04-20 18:57 25.20377 55.45296 1272 ft 147 kts 301°
2026-04-20 18:57 25.20917 55.44329 1068 ft 148 kts 301°
2026-04-20 18:57 25.21440 55.43369 871 ft 148 kts 300°
2026-04-20 18:57 25.21971 55.42396 664 ft 147 kts 301°
2026-04-20 18:58 25.22506 55.41443 464 ft 145 kts 300°
2026-04-20 18:58 25.23033 55.40490 255 ft 146 kts 301°
2026-04-20 18:58 25.23559 55.39539 53 ft 143 kts 302°
2026-04-20 18:58 25.24040 55.38673 28 ft 112 kts 301°
2026-04-20 18:59 25.24353 55.38111 30 ft 60 kts 301°
2026-04-20 18:59 25.24544 55.37769 26 ft 49 kts 301°
2026-04-20 18:59 25.24712 55.37466 26 ft 44 kts 301°
2026-04-20 18:59 25.24786 55.37227 28 ft 26 kts 259°
2026-04-20 19:00 25.24784 55.37084 27 ft 17 kts 271°
2026-04-20 19:00 25.24800 55.36952 31 ft 18 kts 289°
2026-04-20 19:00 25.24853 55.36828 27 ft 18 kts 288°
2026-04-20 19:00 25.24882 55.36694 25 ft 18 kts 285°
2026-04-20 19:01 25.24943 55.36571 30 ft 19 kts 302°
2026-04-20 19:01 25.25012 55.36450 27 ft 19 kts 302°
2026-04-20 19:01 25.25084 55.36326 27 ft 20 kts 302°
2026-04-20 19:01 25.25148 55.36210 28 ft 9 kts 302°
2026-04-20 19:02 25.25153 55.36201 31 ft 0 kts 302°
2026-04-20 19:02 25.25155 55.36197 25 ft 1 kts 302°
2026-04-20 19:02 25.25163 55.36183 25 ft 5 kts 302°
2026-04-20 19:02 25.25197 55.36123 29 ft 13 kts 302°
2026-04-20 19:03 25.25260 55.36011 29 ft 21 kts 302°
2026-04-20 19:03 25.25348 55.35855 28 ft 27 kts 302°
2026-04-20 19:03 25.25453 55.35667 30 ft 29 kts 302°
2026-04-20 19:03 25.25559 55.35477 31 ft 29 kts 301°
2026-04-20 19:04 25.25665 55.35286 28 ft 29 kts 302°
2026-04-20 19:04 25.25772 55.35097 29 ft 29 kts 301°
2026-04-20 19:04 25.25875 55.34907 28 ft 29 kts 300°
2026-04-20 19:04 25.25982 55.34720 30 ft 29 kts 302°
2026-04-20 19:05 25.26026 55.34584 29 ft 7 kts 238°
2026-04-20 19:05 25.26003 55.34517 28 ft 15 kts 276°
2026-04-20 19:05 25.26039 55.34423 25 ft 7 kts 275°
2026-04-20 19:05 25.26016 55.34382 30 ft 6 kts 220°
2026-04-20 19:06 25.25979 55.34354 29 ft 2 kts 212°
2026-04-20 19:06 25.25977 55.34353 26 ft 0 kts 212°